Flag for U.S.A. Weather past 2 weeks in Fort Lauderdale, Florida, U.S.A.

Now
88 °F

Broken clouds.


Feels Like: 94 °F
Forecast: 72 / 84 °F
Wind: 13 mph from Southwest

Location: Fort Lauderdale / Hollywood International Airport

Current Time: Mar 27, 2015 at 1:24:44 PM

Latest Report: Mar 27, 2015 at 12:53 PM


Visibility: 10 mi

Pressure: 29.89 "Hg

Humidity: 57%

Dew point: 71 °F

Location of Fort LauderdaleLocation

Historic Weather in Fort Lauderdale — Graph

°F

Fort Lauderdale temperature yesterday

Maximum temperature yesterday: 85 °F (at 3:53 PM)
Minimum temperature yesterday: 73 °F (at 3:53 AM)
Average temperature yesterday: 79 °F

Past Weeks' High & Low Weather Summary

 TemperatureHumidityPressure
High87 °F (Mar 23, 2:53 PM)100% (Mar 25, 6:53 AM)30.20 "Hg (Mar 25, 6:53 AM)
Low66 °F (Mar 18, 4:53 AM)43% (Mar 23, 2:53 PM)29.88 "Hg (Mar 23, 4:53 PM)
Average76 °F77%30.04 "Hg
* Reported Mar 12 11:53 AM — Mar 27 11:53 AM, Fort Lauderdale, Weather by CustomWeather, © 2015

Note: Actual official high and low records may vary slightly from our data, if they occured in-between our weather recording intervals... More about our weather records

Advertising

Fort Lauderdale weather history for previous 24 hours

 ConditionsComfort  
Time TempWeatherWind HumidityBarometerVisibility
11:53 AM
Fri, Mar 27
85 °FBroken clouds.14 mph61%29.91 "Hg10 mi
10:53 AM83 °FBroken clouds.14 mph68%29.93 "Hg10 mi
10:00 AM81 °FBroken clouds.13 mph74%29.94 "Hg10 mi
8:53 AM79 °FPassing clouds.10 mph82%29.93 "Hg10 mi
7:53 AM76 °FPassing clouds.7 mph85%29.93 "Hg9 mi
6:53 AM76 °FClear.7 mph82%29.91 "Hg10 mi
5:53 AM76 °FClear.6 mph82%29.90 "Hg10 mi
4:53 AM77 °FPassing clouds.6 mph85%29.90 "Hg10 mi
3:53 AM78 °FPassing clouds.7 mph84%29.91 "Hg10 mi
2:53 AM78 °FPassing clouds.6 mph84%29.92 "Hg10 mi
1:53 AM78 °FOvercast.9 mph84%29.95 "Hg10 mi
12:53 AM78 °FPassing clouds.9 mph84%29.94 "Hg10 mi
11:53 PM
Thu, Mar 26
78 °FPassing clouds.6 mph84%29.96 "Hg10 mi
10:53 PM78 °FPassing clouds.7 mph82%29.96 "Hg10 mi
9:53 PM79 °FClear.9 mph74%29.95 "Hg10 mi
8:53 PM79 °FPartly cloudy.9 mph74%29.94 "Hg10 mi
7:53 PM80 °FScattered clouds.14 mph71%29.93 "Hg10 mi
6:53 PM82 °FPassing clouds.16 mph70%29.91 "Hg10 mi
5:53 PM84 °FPassing clouds.20 mph61%29.91 "Hg10 mi
4:53 PM84 °FScattered clouds.20 mph61%29.91 "Hg10 mi
3:53 PM85 °FScattered clouds.20 mph61%29.96 "Hg10 mi
2:53 PM84 °FScattered clouds.15 mph67%29.96 "Hg10 mi
1:53 PM83 °FPartly sunny.20 mph72%29.99 "Hg10 mi
Weather by CustomWeather, © 2015

See weather overviewHow to use our weather pages